Two Harbors, MN

12:58 AM CST on November 19, 2017 (GMT -0600)
Helgeson

Weather History for KTWM - June, 2013

Change the Weather History Date:

Monday, June 17, 2013

  Actual Average Record
Temperature  
Mean Temperature 47 °F -  
Max Temperature 57 °F 65 °F 83 °F (1980)
Min Temperature 37 °F 44 °F 35 °F (2000)
Degree Days  
Heating Degree Days 18    
Moisture  
Dew Point 40 °F    
Average Humidity 74    
Maximum Humidity 87    
Minimum Humidity 51    
Precipitation  
Precipitation 0.03 in - - ()
Sea Level Pressure  
Sea Level Pressure 29.99 in    
Wind  
Wind Speed 7 mph (ENE)    
Max Wind Speed 18 mph    
Max Gust Speed 24 mph    
Visibility 9 miles    
Events Rain    
Averages and records for this station are not official NWS values.
T = Trace of Precipitation, MM = Missing Value Source: NWS Daily Summary

Daily Weather History Graph

Daily Weather History Graph

Search for Another Location

Airport or City:

Trip Planner

Search our weather history database for the weather conditions in past years. The results will help you decide how hot, cold, wet, or windy it might be!

Date:

Astronomy

Jun. 17, 2013 Rise Set
Actual Time 5:11 AM CDT 9:04 PM CDT
Civil Twilight 4:31 AM CDT 9:44 PM CDT
Nautical Twilight 3:36 AM CDT 10:39 PM CDT
Astronomical Twilight 2:14 AM CDT 12:02 AM CDT
Moon 2:24 PM CDT (6/17) 1:09 AM CDT (6/17)
Length of Visible Light 17h 13m
Length of Day
15h 53m
First Quarter, 60% of the Moon is Illuminated
Jun 17
First Quarter
Jun 23
Full
Jun 29
Last Quarter
Jul 8
New
Jul 15
First Quarter

Hourly Weather History & Observations

Time (CDT) Temp. Windchill Dew Point Humidity Pressure Visibility Wind Dir Wind Speed Gust Speed Precip Events Conditions
12:11 AM 51.8 °F - 46.4 °F 82% 29.86 in 7.0 mi Calm Calm - N/A   Scattered Clouds
12:31 AM 51.8 °F - 46.4 °F 82% 29.85 in 10.0 mi Calm Calm - N/A   Scattered Clouds
12:52 AM 51.8 °F - 46.4 °F 82% 29.85 in 10.0 mi Calm Calm - N/A   Scattered Clouds
1:11 AM 51.8 °F - 46.4 °F 82% 29.85 in 10.0 mi Calm Calm - N/A   Clear
1:31 AM 50.0 °F - 44.6 °F 82% 29.85 in 2.5 mi Calm Calm - N/A   Haze
1:51 AM 50.0 °F - 44.6 °F 82% 29.86 in 10.0 mi Calm Calm - N/A   Mostly Cloudy
2:11 AM 50.0 °F - 44.6 °F 82% 29.86 in 5.0 mi East 6.9 mph - N/A   Haze
2:31 AM 51.8 °F - 46.4 °F 82% 29.88 in 0.5 mi NE 6.9 mph - N/A   Haze
2:51 AM 51.8 °F - 46.4 °F 82% 29.89 in 4.0 mi ENE 10.4 mph 17.3 mph N/A   Haze
3:11 AM 50.0 °F - 44.6 °F 82% 29.89 in 2.5 mi ENE 12.7 mph 20.7 mph N/A   Haze
3:31 AM 48.2 °F - 44.6 °F 87% 29.90 in 1.8 mi NE 10.4 mph 24.2 mph N/A   Haze
3:51 AM 48.2 °F - 42.8 °F 82% 29.91 in 5.0 mi ENE 15.0 mph 20.7 mph N/A   Haze
4:11 AM 46.4 °F 41.5 °F 42.8 °F 87% 29.91 in 10.0 mi NE 10.4 mph 21.9 mph 0.01 in Rain Light Rain
4:31 AM 46.4 °F 40.7 °F 42.8 °F 87% 29.92 in 10.0 mi NE 12.7 mph 18.4 mph 0.01 in   Overcast
4:51 AM 46.4 °F 40.7 °F 41.0 °F 81% 29.92 in 10.0 mi NE 12.7 mph 18.4 mph 0.01 in   Overcast
5:11 AM 44.6 °F 38.8 °F 39.2 °F 81% 29.92 in 10.0 mi ENE 11.5 mph 18.4 mph N/A   Overcast
5:31 AM 44.6 °F 39.7 °F 39.2 °F 81% 29.93 in 10.0 mi NE 9.2 mph - N/A   Overcast
5:51 AM 44.6 °F 40.2 °F 39.2 °F 81% 29.93 in 10.0 mi NE 8.1 mph - N/A   Overcast
6:11 AM 44.6 °F 40.2 °F 39.2 °F 81% 29.94 in 10.0 mi NE 8.1 mph - N/A   Overcast
6:32 AM 44.6 °F 39.7 °F 39.2 °F 81% 29.93 in 10.0 mi NE 9.2 mph - N/A   Overcast
6:51 AM 46.4 °F 41.5 °F 39.2 °F 76% 29.93 in 10.0 mi NE 10.4 mph - N/A   Overcast
7:11 AM 46.4 °F 41.9 °F 39.2 °F 76% 29.94 in 10.0 mi NE 9.2 mph - N/A   Overcast
7:32 AM 46.4 °F 42.9 °F 39.2 °F 76% 29.95 in 10.0 mi NE 6.9 mph - N/A   Overcast
7:51 AM 46.4 °F 41.9 °F 41.0 °F 81% 29.95 in 10.0 mi ENE 9.2 mph - N/A   Overcast
8:11 AM 46.4 °F 42.4 °F 41.0 °F 81% 29.95 in 10.0 mi NE 8.1 mph - N/A   Overcast
8:32 AM 48.2 °F - 41.0 °F 76% 29.96 in 10.0 mi ENE 9.2 mph - N/A   Overcast
8:51 AM 48.2 °F - 42.8 °F 82% 29.97 in 10.0 mi NE 9.2 mph - N/A   Overcast
9:11 AM 48.2 °F - 41.0 °F 76% 29.98 in 10.0 mi NE 9.2 mph - N/A   Overcast
9:32 AM 46.4 °F 40.7 °F 41.0 °F 81% 29.98 in 10.0 mi ENE 12.7 mph - N/A Rain Light Rain
9:50 AM 46.4 °F 41.9 °F 41.0 °F 81% 29.99 in 10.0 mi ENE 9.2 mph - 0.02 in   Light Drizzle
10:11 AM 46.4 °F 41.9 °F 42.8 °F 87% 29.98 in 10.0 mi NE 9.2 mph - N/A   Overcast
10:31 AM 46.4 °F 41.5 °F 41.0 °F 81% 30.00 in 10.0 mi ENE 10.4 mph 16.1 mph N/A   Overcast
10:51 AM 46.4 °F 41.1 °F 41.0 °F 81% 30.00 in 10.0 mi NE 11.5 mph 16.1 mph N/A   Overcast
11:11 AM 46.4 °F 42.4 °F 42.8 °F 87% 30.01 in 10.0 mi ENE 8.1 mph - N/A   Overcast
11:31 AM 46.4 °F 40.7 °F 42.8 °F 87% 30.01 in 10.0 mi NE 12.7 mph 18.4 mph N/A   Overcast
11:51 AM 48.2 °F - 42.8 °F 82% 30.02 in 10.0 mi ENE 17.3 mph 20.7 mph N/A   Overcast
12:11 PM 48.2 °F - 42.8 °F 82% 30.03 in 10.0 mi ENE 16.1 mph - N/A   Overcast
12:31 PM 48.2 °F - 42.8 °F 82% 30.03 in 10.0 mi NE 9.2 mph 19.6 mph N/A   Overcast
12:51 PM 48.2 °F - 42.8 °F 82% 30.03 in 10.0 mi ENE 18.4 mph 21.9 mph N/A   Overcast
1:11 PM 50.0 °F - 41.0 °F 71% 30.04 in 10.0 mi ENE 11.5 mph - N/A   Overcast
1:31 PM 51.8 °F - 42.8 °F 71% 30.04 in 10.0 mi ENE 15.0 mph - N/A   Overcast
1:51 PM 51.8 °F - 42.8 °F 71% 30.03 in 10.0 mi ENE 11.5 mph 18.4 mph N/A   Overcast
2:11 PM 53.6 °F - 41.0 °F 62% 30.04 in 10.0 mi ENE 13.8 mph 18.4 mph N/A   Overcast
2:31 PM 51.8 °F - 39.2 °F 62% 30.05 in 10.0 mi East 13.8 mph - N/A   Overcast
2:51 PM 51.8 °F - 39.2 °F 62% 30.05 in 10.0 mi East 11.5 mph - N/A   Overcast
3:11 PM 53.6 °F - 41.0 °F 62% 30.05 in 10.0 mi East 6.9 mph - N/A   Overcast
3:31 PM 53.6 °F - 41.0 °F 62% 30.05 in 10.0 mi ENE 11.5 mph - N/A   Overcast
3:51 PM 53.6 °F - 41.0 °F 62% 30.04 in 10.0 mi East 9.2 mph - N/A   Overcast
4:11 PM 55.4 °F - 41.0 °F 58% 30.05 in 10.0 mi ENE 10.4 mph - N/A   Overcast
4:31 PM 57.2 °F - 42.8 °F 59% 30.04 in 10.0 mi East 8.1 mph - N/A   Overcast
4:52 PM 57.2 °F - 41.0 °F 55% 30.05 in 10.0 mi East 9.2 mph - N/A   Overcast
5:11 PM 57.2 °F - 39.2 °F 51% 30.04 in 10.0 mi ENE 9.2 mph - N/A   Mostly Cloudy
5:31 PM 55.4 °F - 39.2 °F 54% 30.05 in 10.0 mi ENE 4.6 mph - N/A   Mostly Cloudy
5:52 PM 53.6 °F - 39.2 °F 58% 30.05 in 10.0 mi SE 6.9 mph - N/A   Overcast
6:11 PM 53.6 °F - 37.4 °F 54% 30.05 in 10.0 mi East 9.2 mph - N/A   Overcast
6:32 PM 51.8 °F - 35.6 °F 54% 30.06 in 10.0 mi East 11.5 mph - N/A   Overcast
6:51 PM 51.8 °F - 37.4 °F 58% 30.06 in 10.0 mi ENE 6.9 mph - N/A   Overcast
7:11 PM 51.8 °F - 35.6 °F 54% 30.06 in 10.0 mi ENE 9.2 mph - N/A   Mostly Cloudy
7:32 PM 51.8 °F - 35.6 °F 54% 30.06 in 10.0 mi East 5.8 mph - N/A   Scattered Clouds
7:51 PM 50.0 °F - 35.6 °F 58% 30.06 in 10.0 mi East 6.9 mph - N/A   Clear
8:11 PM 48.2 °F - 35.6 °F 62% 30.06 in 10.0 mi ENE 5.8 mph - N/A   Clear
8:31 PM 46.4 °F - 35.6 °F 66% 30.07 in 10.0 mi Calm Calm - N/A   Clear
8:51 PM 44.6 °F - 37.4 °F 76% 30.07 in 10.0 mi Calm Calm - N/A   Clear
9:11 PM 42.8 °F - 35.6 °F 76% 30.07 in 10.0 mi Calm Calm - N/A   Clear
9:31 PM 42.8 °F - 35.6 °F 76% 30.07 in 10.0 mi Calm Calm - N/A   Clear
9:51 PM 42.8 °F 40.1 °F 35.6 °F 76% 30.08 in 10.0 mi North 4.6 mph - N/A   Clear
10:11 PM 41.0 °F - 35.6 °F 81% 30.09 in 10.0 mi Calm Calm - N/A   Clear
10:32 PM 42.8 °F 40.1 °F 33.8 °F 70% 30.08 in 10.0 mi North 4.6 mph - N/A   Clear
10:51 PM 42.8 °F 41.1 °F 33.8 °F 70% 30.08 in 10.0 mi North 3.5 mph - N/A   Clear
11:11 PM 37.4 °F - 33.8 °F 87% 30.09 in 10.0 mi Calm Calm - N/A   Clear
11:32 PM 37.4 °F - 33.8 °F 87% 30.09 in 10.0 mi Calm Calm - N/A   Clear
11:51 PM 42.8 °F 40.1 °F 32.0 °F 66% 30.09 in 10.0 mi North 4.6 mph - N/A   Clear